AFR350 DTTA-DAAG

Flight info

Callsign AFR350
Flight time N/A
Altitude 24000
Route KEMIR2A KEMIR A411 BJA DCT 37N004E DCT ZEM
Aircraft A359/H-SDE2E3GHIJ3J4J5LM1ORWXY/LB1D1

Departure

Time 2026-04-30 19:48
Airport Tunis Carthage International Airport (DTTA)

Arrival

Time N/A
Airport Houari Boumediene Airport (DAAG)
Time Latitude Longitude Altitude Speed Heading
2026-04-30 19:24 36.83976 10.21980 36 ft 0 kts
2026-04-30 19:45 36.83978 10.21981 37 ft 1 kts
2026-04-30 19:45 36.83995 10.21974 37 ft 4 kts 329°
2026-04-30 19:45 36.84003 10.21919 37 ft 12 kts 276°
2026-04-30 19:46 36.83974 10.21866 37 ft 11 kts 198°
2026-04-30 19:46 36.83898 10.21940 37 ft 17 kts 114°
2026-04-30 19:46 36.83871 10.22093 37 ft 14 kts 97°
2026-04-30 19:46 36.83873 10.22230 37 ft 17 kts 76°
2026-04-30 19:47 36.83937 10.22356 38 ft 17 kts 43°
2026-04-30 19:47 36.84012 10.22402 37 ft 22 kts 14°
2026-04-30 19:47 36.84630 10.22570 35 ft 119 kts 12°
2026-04-30 19:47 36.85658 10.22841 103 ft 177 kts 10°
2026-04-30 19:48 36.86851 10.23093 997 ft 172 kts
2026-04-30 19:48 36.88044 10.23427 1702 ft 190 kts 12°
2026-04-30 19:48 36.89475 10.23843 1928 ft 231 kts 13°
2026-04-30 19:48 36.91171 10.24110 2402 ft 258 kts 356°
2026-04-30 19:49 36.92791 10.23206 3527 ft 257 kts 319°
2026-04-30 19:49 36.93708 10.19024 5554 ft 269 kts 260°
2026-04-30 19:49 36.93032 10.16833 6531 ft 274 kts 240°
2026-04-30 19:50 36.91868 10.14931 7515 ft 278 kts 236°
2026-04-30 19:50 36.91121 10.12730 8493 ft 277 kts 257°
2026-04-30 19:50 36.90642 10.10387 9480 ft 280 kts 258°
2026-04-30 19:50 36.90167 10.08013 10456 ft 285 kts 259°
2026-04-30 19:51 36.89662 10.05537 11016 ft 305 kts 258°
2026-04-30 19:51 36.89108 10.02884 11525 ft 324 kts 258°
2026-04-30 19:51 36.88714 10.01027 12031 ft 330 kts 258°
2026-04-30 19:51 36.87922 9.97326 13198 ft 337 kts 258°
2026-04-30 19:52 36.87545 9.95565 13739 ft 339 kts 258°
2026-04-30 19:52 36.86942 9.92762 14585 ft 343 kts 257°
2026-04-30 19:52 36.86312 9.89836 15465 ft 347 kts 257°
2026-04-30 19:52 36.85677 9.86898 16334 ft 350 kts 257°
2026-04-30 19:53 36.85039 9.83946 17160 ft 354 kts 257°
2026-04-30 19:53 36.84548 9.80929 17908 ft 357 kts 265°
2026-04-30 19:53 36.84412 9.77890 18667 ft 360 kts 270°
2026-04-30 19:53 36.84384 9.75633 19251 ft 362 kts 270°